Weather History for Kendall, FL

Change the Weather History Date:

Wednesday, October 2, 2013

  Actual Average Record
Temperature  
Mean Temperature 82 °F -  
Max Temperature 91 °F 87 °F 92 °F (1989)
Min Temperature 75 °F 71 °F 66 °F (2001)
Cooling Degree Days 17    
Growing Degree Days 32 (Base 50)    
Moisture  
Dew Point 75 °F    
Average Humidity 86    
Maximum Humidity 100    
Minimum Humidity 61    
Precipitation  
Precipitation 0.46 in - - ()
Sea Level Pressure  
Sea Level Pressure 30.00 in    
Wind  
Wind Speed 10 mph (East)    
Max Wind Speed 18 mph    
Max Gust Speed 26 mph    
Visibility 9 miles    
Events Rain , Thunderstorm    
Averages and records for this station are not official NWS values.
T = Trace of Precipitation, MM = Missing Value Source: NWS Daily Summary

Daily Weather History Graph

Daily Weather History Graph

Search for Another Location

Airport:

Trip Planner

Search our weather history database for the weather conditions in past years. The results will help you decide how hot, cold, wet, or windy it might be!

Date:

Astronomy

Oct. 02, 2013 Rise Set
Actual Time 7:14 AM EDT 7:07 PM EDT
Civil Twilight 6:51 AM EDT 7:29 PM EDT
Nautical Twilight 6:24 AM EDT 7:56 PM EDT
Astronomical Twilight 5:58 AM EDT 8:23 PM EDT
Moon 4:57 AM EDT (10/2) 5:33 PM EDT (10/2)
Length of Visible Light 12h 38m
Length of Day
11h 52m
Waning Crescent, 6% of the Moon is Illuminated
Oct 2
Waning Crescent
Oct 4
New
Oct 11
First Quarter
Oct 18
Full
Oct 26
Last Quarter

Hourly Weather History & Observations

Time (EDT) Temp. Heat Index Dew Point Humidity Pressure Visibility Wind Dir Wind Speed Gust Speed Precip Events Conditions
12:53 AM 79.0 °F - 73.9 °F 84% 30.02 in 10.0 mi East 10.4 mph - N/A   Partly Cloudy
1:53 AM 80.1 °F 84.2 °F 73.0 °F 79% 30.01 in 10.0 mi East 9.2 mph - N/A   Partly Cloudy
2:53 AM 78.1 °F - 73.0 °F 84% 30.00 in 10.0 mi East 5.8 mph - N/A   Clear
3:53 AM 79.0 °F - 73.0 °F 82% 29.97 in 10.0 mi ENE 5.8 mph - N/A   Partly Cloudy
4:53 AM 79.0 °F - 73.9 °F 84% 29.96 in 10.0 mi East 8.1 mph - N/A   Clear
5:53 AM 79.0 °F - 75.0 °F 88% 29.97 in 10.0 mi ENE 6.9 mph - N/A   Clear
6:53 AM 78.1 °F - 75.0 °F 90% 29.98 in 10.0 mi East 6.9 mph - N/A   Partly Cloudy
7:53 AM 79.0 °F - 75.0 °F 88% 29.99 in 10.0 mi East 8.1 mph - N/A   Partly Cloudy
8:53 AM 82.9 °F 90.2 °F 75.0 °F 77% 30.01 in 10.0 mi East 12.7 mph - N/A   Clear
9:53 AM 86.0 °F 96.0 °F 75.9 °F 72% 30.02 in 10.0 mi ESE 10.4 mph - N/A   Partly Cloudy
10:53 AM 86.0 °F 93.8 °F 73.9 °F 67% 30.02 in 10.0 mi East 8.1 mph - N/A   Clear
11:53 AM 88.0 °F 96.5 °F 73.9 °F 63% 30.02 in 10.0 mi ESE 10.4 mph - N/A   Partly Cloudy
12:53 PM 89.1 °F 98.0 °F 73.9 °F 61% 30.01 in 10.0 mi East 13.8 mph - N/A   Scattered Clouds
1:53 PM 84.0 °F 91.9 °F 75.0 °F 74% 30.00 in 10.0 mi NE 13.8 mph - N/A   Overcast
2:31 PM 82.4 °F 88.2 °F 73.4 °F 74% 29.99 in 10.0 mi NE 18.4 mph - N/A   Mostly Cloudy
2:39 PM 84.2 °F 92.3 °F 75.2 °F 74% 29.98 in 10.0 mi NE 11.5 mph - N/A   Overcast
2:53 PM 82.0 °F 87.9 °F 73.9 °F 76% 29.99 in 10.0 mi ENE 17.3 mph 23.0 mph N/A   Overcast
3:08 PM 78.8 °F - 75.2 °F 89% 29.99 in 1.5 mi NE 12.7 mph 21.9 mph 0.04 in Rain Rain
3:14 PM 78.8 °F - 75.2 °F 89% 29.99 in 5.0 mi ENE 11.5 mph - 0.05 in Rain Light Rain
3:53 PM 77.0 °F - 75.0 °F 94% 29.99 in 5.0 mi ESE 18.4 mph 26.5 mph 0.05 in Rain Light Rain
4:00 PM 77.0 °F - 75.2 °F 94% 29.99 in 10.0 mi ESE 12.7 mph - 0.00 in Rain Light Rain
4:53 PM 75.9 °F - 75.9 °F 100% 29.99 in 10.0 mi ENE 9.2 mph - 0.09 in Rain Light Rain
5:53 PM 75.9 °F - 75.9 °F 100% 29.99 in 10.0 mi East 8.1 mph - 0.06 in Rain Light Rain
6:53 PM 75.9 °F - 75.9 °F 100% 30.00 in 7.0 mi NE 9.2 mph - 0.07 in Rain Light Rain
7:53 PM 75.9 °F - 75.9 °F 100% 30.01 in 10.0 mi ENE 10.4 mph - 0.06 in Rain Light Rain
8:37 PM 75.2 °F - 75.2 °F 100% 30.02 in 9.0 mi ENE 8.1 mph - 0.03 in Rain , Thunderstorm Light Thunderstorms and Rain
8:53 PM 75.9 °F - 75.9 °F 100% 30.02 in 5.0 mi East 8.1 mph - 0.07 in Rain , Thunderstorm Light Thunderstorms and Rain
9:08 PM 75.2 °F - 75.2 °F 100% 30.02 in 9.0 mi East 10.4 mph - 0.01 in Rain Light Rain
9:53 PM 75.0 °F - 75.0 °F 100% 30.04 in 10.0 mi ESE 5.8 mph - 0.06 in   Overcast
10:53 PM 75.0 °F - 75.0 °F 100% 30.05 in 10.0 mi NE 6.9 mph - N/A   Overcast
11:53 PM 75.0 °F - 73.9 °F 96% 30.04 in 10.0 mi ENE 8.1 mph - N/A   Mostly Cloudy